Change the Weather History Date:

Saturday, January 12, 2013

  Actual Average Record
Temperature  
Mean Temperature 0 °F 16 °F  
Max Temperature 4 °F 26 °F 58 °F (1987)
Min Temperature -4 °F 6 °F -44 °F (1916)
Degree Days  
Heating Degree Days 65 49  
Month to date heating degree days 535 588  
Since 1 July heating degree days 3926 4125  
Cooling Degree Days 0 0  
Month to date cooling degree days 0 0  
Year to date cooling degree days 0 0  
Moisture  
Dew Point -5 °F    
Average Humidity 78    
Maximum Humidity 87    
Minimum Humidity 68    
Precipitation  
Precipitation T in 0.01 in 0.38 in (1988)
Month to date precipitation 0.01 0.13  
Year to date precipitation 0.01 0.13  
Sea Level Pressure  
Sea Level Pressure 30.11 in    
Wind  
Wind Speed 16 mph (NW)    
Max Wind Speed 29 mph    
Max Gust Speed 36 mph    
Visibility 6 miles    
Events Fog , Snow    
T = Trace of Precipitation, MM = Missing Value Source: NWS Daily Summary

Daily Weather History Graph

Daily Weather History Graph

Search for Another Location

Airport or City:

Trip Planner

Search our weather history database for the weather conditions in past years. The results will help you decide how hot, cold, wet, or windy it might be!

Date:

Astronomy

Jan. 12, 2013 Rise Set
Actual Time 7:33 AM MST 4:26 PM MST
Civil Twilight 6:59 AM MST 5:00 PM MST
Nautical Twilight 6:21 AM MST 5:38 PM MST
Astronomical Twilight 5:44 AM MST 6:14 PM MST
Moon 7:47 AM MST (1/12) 6:05 PM MST (1/12)
Length of Visible Light 10h 01m
Length of Day
8h 53m
New Moon, 1% of the Moon is Illuminated
Jan 12
New Moon
Jan 18
First Quarter
Jan 26
Full
Feb 3
Last Quarter
Feb 10
New

Hourly Weather History & Observations

Time (MST) Temp. Windchill Dew Point Humidity Pressure Visibility Wind Dir Wind Speed Gust Speed Precip Events Conditions
12:31 AM 1.4 °F -22.7 °F -2.2 °F 85% 29.80 in 0.5 mi NW 26.5 mph 32.2 mph 0.00 in Snow Snow
12:45 AM 1.4 °F -21.9 °F -2.2 °F 85% 29.81 in 0.2 mi NNW 24.2 mph 33.4 mph 0.00 in Fog , Snow Snow
12:56 AM 1.9 °F -20.7 °F -2.0 °F 83% 29.99 in 0.2 mi NNW 23.0 mph 33.4 mph 0.00 in Fog , Snow Snow
1:04 AM 1.4 °F -21.4 °F -2.2 °F 85% 29.82 in 0.5 mi NW 23.0 mph - 0.00 in Fog , Snow Snow
1:23 AM 1.4 °F -22.3 °F -2.2 °F 85% 29.84 in 0.2 mi NNW 25.3 mph 34.5 mph 0.00 in Fog , Snow Snow
1:34 AM 1.4 °F -22.3 °F -2.2 °F 85% 29.84 in 0.5 mi NNW 25.3 mph 35.7 mph 0.00 in Snow Snow
1:56 AM 1.9 °F -21.2 °F -2.9 °F 80% 30.03 in 1.0 mi NW 24.2 mph 32.2 mph 0.00 in Snow Light Snow
2:04 AM 1.4 °F -21.4 °F -2.2 °F 85% 29.87 in 1.0 mi NNW 23.0 mph 31.1 mph 0.00 in Snow Light Snow
2:56 AM 1.0 °F -22.8 °F -4.0 °F 79% 30.06 in 1.8 mi NW 25.3 mph 33.4 mph 0.00 in Snow Blowing Snow
3:06 AM 1.4 °F -22.3 °F -4.0 °F 78% 29.89 in 2.0 mi NW 25.3 mph 32.2 mph N/A Snow Blowing Snow
3:44 AM 1.4 °F -22.7 °F -5.8 °F 72% 29.89 in 3.0 mi NW 26.5 mph 32.2 mph 0.00 in   Overcast
3:56 AM 1.0 °F -22.8 °F -4.0 °F 79% 30.07 in 2.5 mi NW 25.3 mph 32.2 mph 0.00 in Snow Blowing Snow
4:12 AM 1.4 °F -21.0 °F -4.0 °F 78% 29.90 in 1.8 mi NW 21.9 mph 33.4 mph 0.00 in   Overcast
4:56 AM 1.0 °F -20.9 °F -5.1 °F 75% 30.10 in 10.0 mi NW 20.7 mph 27.6 mph 0.00 in   Overcast
5:56 AM 1.0 °F -19.9 °F -5.1 °F 75% 30.13 in 10.0 mi NW 18.4 mph - N/A   Overcast
6:56 AM -0.0 °F -20.1 °F -7.1 °F 72% 30.17 in 10.0 mi NW 16.1 mph - N/A   Scattered Clouds
7:56 AM -2.9 °F -23.8 °F -9.0 °F 75% 30.20 in 10.0 mi WNW 16.1 mph - N/A   Clear
8:56 AM -2.0 °F -23.9 °F -8.0 °F 76% 30.22 in 10.0 mi WNW 18.4 mph - N/A   Scattered Clouds
9:56 AM -2.0 °F -22.6 °F -9.0 °F 72% 30.25 in 10.0 mi WNW 16.1 mph - N/A   Scattered Clouds
10:56 AM -0.9 °F -21.9 °F -7.1 °F 75% 30.26 in 10.0 mi NW 17.3 mph - N/A   Mostly Cloudy
11:56 AM 1.0 °F -20.4 °F -5.1 °F 75% 30.25 in 10.0 mi WNW 19.6 mph - N/A   Scattered Clouds
12:56 PM 1.9 °F -18.7 °F -6.0 °F 69% 30.25 in 10.0 mi WNW 18.4 mph - N/A   Mostly Cloudy
1:56 PM 3.9 °F -13.7 °F -5.1 °F 66% 30.27 in 10.0 mi WNW 13.8 mph - N/A   Clear
2:56 PM 3.9 °F -11.3 °F -5.1 °F 66% 30.27 in 10.0 mi WNW 10.4 mph - N/A   Clear
3:56 PM 1.9 °F -12.9 °F -6.0 °F 69% 30.27 in 10.0 mi WNW 9.2 mph - N/A   Scattered Clouds
4:56 PM 1.0 °F -11.7 °F -6.0 °F 72% 30.27 in 10.0 mi West 6.9 mph - N/A   Clear
6:56 PM 1.0 °F -18.0 °F -6.0 °F 72% 30.27 in 10.0 mi WNW 15.0 mph - N/A   Clear
7:56 PM -2.0 °F -17.7 °F -8.0 °F 76% 30.28 in 10.0 mi West 9.2 mph - N/A   Clear
8:56 PM -2.9 °F -21.6 °F -9.9 °F 72% 30.29 in 10.0 mi West 12.7 mph - N/A   Clear
9:56 PM -2.9 °F -21.6 °F -9.9 °F 72% 30.28 in 10.0 mi West 12.7 mph - N/A   Clear
10:56 PM -2.0 °F -19.6 °F -9.0 °F 72% 30.28 in 10.0 mi West 11.5 mph - N/A   Clear
11:56 PM -2.0 °F -13.9 °F -9.0 °F 72% 30.27 in 10.0 mi SW 5.8 mph - N/A   Clear